Home > Weather > Thiès > Past weeks

Flag for Senegal Weather for the Past 2 Weeks in Thiès, Senegal

Now
77 °F

Sunny.


Feels Like: 79 °F
Forecast: N/A
Wind: 15 mph from North

Location: Dakar / Yoff

Current Time: Feb 12, 2016 at 2:50:52 PM

Latest Report: Feb 12, 2016 at 2:30 PM


Visibility: 10 mi

Pressure: 29.92 "Hg

Humidity: 61%

Dew point: 63 °F

Location of ThièsLocation

Historic Weather in Thiès — Graph

°F

Thiès Temperature Yesterday

Maximum temperature yesterday: 82 °F (at 3:00 PM)
Minimum temperature yesterday: 68 °F (at 7:30 AM)
Average temperature yesterday: 74 °F

High & Low Weather Summary for the Past Weeks

 TemperatureHumidityPressure
High97 °F (Feb 7, 2:00 PM)100% (Jan 30, 4:00 PM)32.90 "Hg (Jan 30, 4:00 PM)
Low50 °F (Jan 30, 4:00 PM)10% (Feb 4, 10:30 AM)29.83 "Hg (Feb 2, 4:30 PM)
Average77 °F55%29.95 "Hg
* Reported Jan 28 2:00 PM — Feb 12 2:00 PM, Thiès, Weather by CustomWeather, © 2016

Note: Actual official high and low records may vary slightly from our data, if they occured in-between our weather recording intervals... More about our weather records

Advertising

Thiès Weather History for the Previous 24 Hours

 ConditionsComfort  
Time TempWeatherWind HumidityBarometerVisibility
2:00 PM
Fri, Feb 12
77 °FSunny.16 mph61%29.92 "Hg10 mi
1:30 PM79 °FSunny.14 mph58%29.95 "Hg10 mi
1:00 PM79 °FSunny.15 mph58%29.95 "Hg10 mi
12:30 PM79 °FSunny.13 mph54%29.98 "Hg10 mi
12:00 PM79 °FSunny.14 mph54%29.98 "Hg10 mi
11:30 AM79 °FClear.8 mph45%29.98 "Hg5 mi
11:00 AM79 °FClear.9 mph45%29.98 "Hg5 mi
10:30 AM77 °FClear.8 mph47%29.98 "Hg4 mi
10:00 AM77 °FClear.9 mph47%29.98 "Hg4 mi
9:30 AM75 °FClear.8 mph50%29.98 "Hg4 mi
9:00 AM75 °FClear.7 mph50%29.95 "Hg4 mi
8:30 AM73 °FClear.7 mph57%29.95 "Hg4 mi
8:00 AM73 °FClear.7 mph57%29.92 "Hg5 mi
7:30 AM72 °FClear.7 mph83%29.92 "Hg5 mi
7:00 AM72 °FClear.7 mph83%29.92 "Hg5 mi
6:30 AM72 °FClear.7 mph83%29.89 "Hg10 mi
6:00 AM72 °FClear.9 mph83%29.89 "Hg10 mi
5:30 AM72 °FClear.9 mph83%29.89 "Hg10 mi
5:00 AM72 °FClear.9 mph83%29.89 "Hg10 mi
4:30 AM72 °FClear.10 mph83%29.89 "Hg10 mi
4:00 AM73 °FClear.10 mph83%29.89 "Hg10 mi
3:30 AM73 °FClear.8 mph83%29.89 "Hg10 mi
3:00 AM73 °FPassing clouds.9 mph83%29.89 "HgN/A
2:30 AM73 °FClear.8 mph83%29.92 "Hg10 mi
2:00 AM73 °FClear.10 mph83%29.92 "Hg10 mi
1:30 AM73 °FClear.12 mph83%29.92 "Hg10 mi
1:00 AM73 °FClear.12 mph78%29.92 "Hg10 mi
12:30 AM73 °FClear.10 mph78%29.92 "Hg10 mi
12:00 AM73 °FPassing clouds.10 mph89%29.92 "HgN/A
11:30 PM
Thu, Feb 11
73 °FClear.10 mph89%29.92 "Hg10 mi
11:00 PM73 °FClear.13 mph89%29.92 "Hg10 mi
10:00 PM73 °FClear.12 mph89%29.92 "Hg10 mi
9:30 PM73 °FClear.13 mph89%29.92 "Hg10 mi
9:00 PM77 °FClear.13 mph65%29.92 "Hg10 mi
8:30 PM77 °FClear.13 mph65%29.89 "Hg10 mi
8:00 PM77 °FClear.13 mph65%29.89 "Hg10 mi
7:30 PM77 °FClear.10 mph65%29.89 "Hg10 mi
7:00 PM79 °FSunny.10 mph61%29.86 "Hg10 mi
6:30 PM81 °FSunny.10 mph58%29.86 "Hg10 mi
6:00 PM81 °FSunny.12 mph58%29.86 "Hg10 mi
5:30 PM79 °FClear.9 mph61%29.86 "Hg6 mi
5:00 PM79 °FClear.7 mph61%29.86 "Hg6 mi
4:30 PM81 °FClear.9 mph58%29.86 "Hg6 mi
4:00 PM81 °FClear.9 mph58%29.86 "Hg5 mi
3:30 PM82 °FClear.13 mph55%29.86 "Hg5 mi
3:00 PM82 °FClear.13 mph55%29.86 "Hg5 mi
2:30 PM81 °FClear.12 mph54%29.86 "Hg5 mi
2:00 PM81 °FClear.10 mph54%29.89 "Hg5 mi
Weather by CustomWeather, © 2016

See weather overviewHow to use our weather pages